STARLINK-36317

Last updated on Sat Mar 14 2026 00:02:06 GMT+0000 (Coordinated Universal Time)

1 67736U 26026R 26072.58334491 .00100830 00000+0 30915-2 0 9990 2 67736 97.2845 127.1650 0001069 67.8619 331.2043 15.33368227 5945
UTC large
Height (km)
Speed (km/s)
/
Latitude / Longitude
Inclination (degrees)
Orbital Period (minutes)
Azimuth
Elevation
Range (km)
Doppler Factor

Next 0 passes for location: London (51.5072 / 0.1276)

Sorry there are no passes over London.